Showing default

GALAXY 23 (TELSTAR 13), 27854

Orbit data source: Space-Track

GALAXY 23 (TELSTAR 13), 27854 is a payload satellite owned by Echostar (US) in GEO that was launched on Fri, 08 Aug 2003 UTC via a ZENIT-3SL launch vehicle from the Sea Launch (SEAL). Payloads include a variety of satellites, spacecraft, and rockets equipped with specific instruments for various scientific and technological missions. These include communications satellites like Starlink; space stations such as the ISS; scientific satellites like the Hubble; Earth observation satellites from companies like Planet Labs, Umbra, and HawkEye 360; GPS; miniature CubeSats for education and research; and military/defense satellites.

Loading next visibility...
GALAXY 23 (TELSTAR 13) details
Identifier
27854, 2003-034A
Orbit
GEO
Last TLE update21 hours ago
Origin
Flag of USEchostar (US)
ManufacturerSS/Loral
MissionOperational Commercial Communications
Bus & MotorSSL-1300, R-4D-11-164
Mass4,737 kg wet, ~2,000 kg dry
Launch date (UTC)
2003-08-08 (21 years ago)
Launch vehicle
ZENIT-3SL
Launch site
Sea Launch (SEAL)
Object type
Payload
Rocket body
Debris
Shape & HBRBox + 2 Pan, 2.8 m
Radar Cross Section40.765 m², Large (>1 m²)

Expand to show TLE details & history

TLE from 21 hours ago
0 GALAXY 23 (TELSTAR 13)
1 27854U 03034A   24360.57510194  .00000038  00000-0  00000+0 0  9993
2 27854   1.8025  86.5176 0002757 188.9585 265.2460  1.00270362 83144
Epoch: 2024-12-25T13:48Z
Definitive object data (Epoch: 2024-12-25T13:48:08.807Z)
Latitude1.79875°
Longitude-120.9151°
Altitude35,787.231 km
Speed3.075 km/s
True Right ascension12h 02m 45s
True Declination1° 47' 49"
Sunlit
Object was in daylight at TLE epoch
Visualization TLE readout
Latitude1.39597°
Longitude-165.28104°
Altitude35,795.09 km
Speed3.074 km/s
Apparent Right ascension08h 57m 07s
Apparent Declination-4° 38' 42"
Sunlit
Object is in daylight
Visualization observer readout
Local Sidereal Time10:08:31
Azimuth204.483° SW
Elevation42.509°
Doppler factor1
Orbital elements
Apogee altitude35,799.688 km
Perigee altitude35,776.437 km
Semi-major axis42,166.2 km
Eccentricity0.0002757
Inclination1.8025°
RAAN86.5176°
Arg. of periapsis188.9585°
True anomaly265.21452°
Mean anomaly265.246°
Eccentric anomaly265.23026°
Mean motion0.25067 °/min
BSTARUnknown
Orbital period1436.17 mins
Loading historical data...
27854 neighbors
Authenticating...
Loading maneuver chart data...
Loading historical data...
Loading historical data...
Loading historical data...
Loading historical data...
Loading historical data...
Loading historical data...
Loading historical data...
Other satellites on launch #34 in the year 2003 (2003-08-08 UTC)

GALAXY 23 (TELSTAR 13) Visibility forecast

Observer location: undefined°, undefined

Span
Click to sort rows by Start time (UTC) header in descending order
Start Az.
Max El. time (UTC)
Max El. Az.
Max El.
End time (UTC)
End Az.
1440 mins2024-12-26 10:47:16.720Z204.474° SW2024-12-26 13:31:16.720Z204.668° SW34.259°2024-12-27 10:47:16.720Z204.491° SW
|